#timestamp,LO_Frequency,Hit,StdDev 
1654034415.6,286046998.6,N
1654034435.5,286047000.2,N
1654034455.3,286046998.5,N
1654034475.1,286046998.3,N
1654034495.9,286047000.2,N
1654034515.7,286047000.0,N
1654034535.6,286047000.8,N
1654034555.4,286046998.5,N
1654034575.2,286046998.5,N
1654034595.1,286046998.7,N
1654034596.0,286046998.7,N
1654034615.8,286047001.2,N
1654034635.7,286047000.7,N
1654034655.5,286047001.1,N
1654034675.3,286046999.8,N
1654034695.2,286047000.0,N
1654034715.0,286047001.1,N
1654034715.9,286047001.1,N
1654034735.8,286047000.7,N
1654034755.6,286046998.8,N
1654034775.4,286046998.9,N
1654034795.3,286047000.7,N
1654034815.1,286047000.6,N
1654034835.8,286046999.9,N
1654034855.7,286047000.5,N
1654034875.5,286046998.4,N
1654034895.4,286046998.3,N
1654034915.2,286046998.1,N
1654034935.0,286046998.2,N
1654034935.9,286046998.2,N
1654034955.8,286047000.5,N
1654034975.6,286046998.2,N
1654034995.4,286046998.1,N
1654035015.3,286046998.5,N
1654035035.1,286046998.1,N
1654035055.9,286047001.1,N
1654035075.7,286046998.1,N
1654035095.5,286046998.6,N
1654035115.4,286047001.1,N
1654035135.2,286046998.1,N
1654035155.0,286046998.9,N
1654035156.0,286046998.9,N
1654035175.8,286046998.2,N
1654035195.6,286046996.9,N
1654035215.5,286046999.1,N
1654035235.3,286046996.9,N
1654035255.1,286046996.6,N
1654035275.9,286046996.6,N
1654035295.7,286046999.5,N
1654035315.6,286046997.0,N
1654035335.4,286046999.5,N
1654035355.2,286046996.9,N
1654035375.1,286046998.1,N
1654035376.0,286046998.1,N
1654035395.8,286046999.0,N
1654035415.6,286046999.5,N
1654035435.5,286046999.6,N
1654035455.3,286046999.0,N
1654035475.2,286046997.7,N
1654035495.9,286046997.8,N
1654035515.7,286046998.0,N
1654035535.6,286046995.0,Y
1654035555.4,286046997.7,P
1654035575.2,286046997.0,P
1654035595.1,286046998.8,N
1654035596.0,286046998.8,N
1654035615.8,286047000.8,N
1654035635.7,286047000.9,N
1654035655.5,286047001.0,N
1654035675.3,286046998.4,N
1654035695.2,286046998.2,N
1654035715.0,286046999.3,N
1654035715.9,286046999.3,N
1654035735.8,286046998.2,N
1654035755.6,286047001.2,N
1654035775.4,286047001.0,N
1654035795.3,286047000.3,N
1654035815.1,286047000.7,N
1654035835.8,286047000.3,N
1654035855.7,286046998.2,N
1654035875.5,286046998.1,N
1654035895.4,286047001.0,N
1654035915.2,286047000.3,N
1654035935.0,286047000.1,N
1654035935.9,286047000.1,N
1654035955.8,286046999.7,N
1654035975.6,286047000.0,N
1654035995.5,286047000.3,N
1654036015.3,286047001.2,N
1654036035.1,286046998.1,N
1654036055.9,286047001.2,N
1654036075.7,286047001.1,N
1654036095.5,286046998.1,N
1654036115.4,286047000.6,N
1654036135.2,286047001.0,N
1654036155.0,286047001.0,N
1654036156.0,286047001.0,N
1654036175.8,286046998.2,N
1654036195.6,286047001.1,N
1654036215.5,286046998.6,N
1654036235.3,286047000.4,N
1654036255.1,286047001.1,N
1654036275.9,286046998.4,N
1654036295.7,286046999.3,N
1654036315.6,286046997.8,N
1654036335.4,286046997.3,N
1654036355.2,286046997.7,N
1654036375.1,286046999.0,N
1654036376.0,286046999.0,N
1654036395.8,286046998.9,N
1654036415.6,286046998.5,N
1654036435.5,286046998.6,N
1654036455.3,286046998.6,N
1654036475.2,286046998.4,N
1654036495.9,286046998.7,N
1654036515.7,286047001.1,N
1654036535.6,286046998.1,N
1654036555.4,286047001.1,N
1654036575.3,286047000.8,N
1654036595.1,286047000.4,N
1654036596.0,286047000.4,N
1654036615.8,286047001.0,N
1654036635.7,286047001.2,N
1654036655.5,286047000.5,N
1654036675.3,286047000.9,N
1654036695.2,286046998.8,N
1654036715.0,286046999.2,N
1654036715.9,286046999.2,N
1654036735.8,286046999.1,N
1654036755.6,286046999.2,N
1654036775.4,286046996.5,Y
1654036795.3,286046996.9,P
1654036815.1,286046997.0,N
1654036835.9,286046998.9,N
1654036855.7,286047001.1,N
1654036875.5,286047000.2,N
1654036895.4,286047002.3,N
1654036915.2,286047001.6,N
1654036935.0,286047001.9,N
1654036935.9,286047001.9,N
1654036955.8,286047001.4,N
1654036975.6,286047001.8,N
1654036995.5,286047004.0,N
1654037015.3,286047003.6,N
1654037035.1,286047004.3,N
1654037055.9,286047002.2,N
1654037075.7,286047002.1,N
1654037095.5,286047003.9,N
1654037115.4,286047003.5,N
1654037135.2,286047003.6,N
1654037155.1,286047003.3,N
1654037156.0,286047003.3,N
1654037175.8,286047004.2,N
1654037195.6,286047003.9,N
1654037215.5,286047004.1,N
1654037235.3,286047004.3,N
1654037255.1,286047003.9,N
1654037275.9,286047004.4,N
1654037295.7,286047004.1,N
1654037315.6,286047004.3,N
1654037335.4,286047003.4,N
1654037355.2,286047003.8,N
1654037375.1,286047004.3,N
1654037376.0,286047004.3,Y
1654037395.8,286047000.2,P
1654037415.7,286047000.8,N
1654037435.5,286046998.8,N
1654037455.3,286046998.1,N
1654037475.2,286046998.1,N
1654037495.0,286046998.6,N
1654037495.9,286046998.6,N
1654037515.7,286046999.3,N
1654037535.6,286046998.9,N
1654037555.4,286046998.9,N
1654037575.3,286046998.2,N
1654037595.1,286046999.8,N
1654037596.0,286046999.8,N
1654037615.8,286046999.9,N
1654037635.7,286047000.1,N
1654037655.5,286046999.9,N
1654037675.3,286047000.4,N
1654037695.2,286047000.7,N
1654037715.0,286047000.0,N
1654037715.9,286047000.0,N
1654037735.8,286047000.6,N
1654037755.6,286047001.1,N
1654037775.4,286047000.0,N
1654037795.3,286047002.5,N
1654037815.1,286047002.8,N
1654037835.8,286047002.8,N
1654037855.7,286047002.4,N
1654037875.5,286047002.4,N
1654037895.4,286046999.9,N
1654037915.2,286046999.9,N
1654037935.0,286047000.1,N
1654037935.9,286047000.1,N
1654037955.8,286047002.2,N
1654037975.6,286047001.9,N
1654037995.5,286047002.4,N
